Location: Azat
(46.0765°N, 1.7600°E)
Time: 03:05:06
(UTC+00:00)

BREEZE M DEB (TANK) - Pass Details

Date: 09 April 2020
Orbit: 303 x 11878 km, 49.5° (Epoch: 29 May)

Event Time Altitude Azimuth Distance (km) Brightness Sun altitude
Rises 19:18:10 0° 201° (SSW) 2,125 5.3 -8.4°
Reaches altitude 10° 19:19:48 10° 184° (S) 1,493 4.4 -8.6°
Maximum altitude 19:22:20 25° 125° (SE) 1,244 3.5 -9.1°
Drops below altitude 10° 19:27:23 10° 72° (ENE) 3,127 5.7 -9.9°
Sets 19:32:47 0° 62° (ENE) 5,485 7.0 -10.7°
